FW5426 Weather Reports


Display with metric or nautical units.
time (UTC)temp
F
wind
direction
speed
MPH
gust
MPH
rain 1hr
in
rain 24hr
in
rain mn
in
humidity
%
barometer
mb
20260903121702 77 212 13.0 22.0 0.00 0.00 0.00 48 1018.9
20260903121654 77 250 14.0 22.0 0.00 0.00 0.00 48 1018.9
20260903120923 77 217 11.0 22.0 0.00 0.00 0.00 48 1019.0
20260903120201 78 217 10.0 21.0 0.00 0.00 0.00 47 1018.9
20260903115701 78 219 11.0 21.0 0.00 0.00 0.00 47 1018.8
20260903115201 78 225 13.0 23.0 0.00 0.00 0.00 47 1018.7
20260903114702 78 259 13.0 23.0 0.00 0.00 0.00 47 1018.7
20260903114201 78 235 11.0 22.0 0.00 0.00 0.00 47 1018.7
20260903113922 78 244 9.0 19.0 0.00 0.00 0.00 47 1018.7
20260903113202 79 213 8.0 15.0 0.00 0.00 0.00 46 1018.6
20260903112923 79 214 9.0 15.0 0.00 0.00 0.00 46 1018.6
20260903112202 79 250 8.0 15.0 0.00 0.00 0.00 45 1018.6
20260903111702 80 246 6.0 12.0 0.00 0.00 0.00 45 1018.6
20260903111201 80 308 5.0 10.0 0.00 0.00 0.00 44 1018.7
20260903110702 81 244 5.0 9.0 0.00 0.00 0.00 43 1018.4
20260903110201 80 196 3.0 9.0 0.00 0.00 0.00 43 1018.4
20260903105701 81 217 3.0 6.0 0.00 0.00 0.00 43 1018.2
20260903105201 81 130 4.0 9.0 0.00 0.00 0.00 43 1018.3
20260903104919 81 211 4.0 9.0 0.00 0.00 0.00 42 1018.3
20260903104430 81 185 6.0 13.0 0.00 0.00 0.00 41 1018.1
20260903103701 81 221 6.0 13.0 0.00 0.00 0.00 42 1018.2
20260903103201 80 151 4.0 9.0 0.00 0.00 0.00 43 1018.2
20260903102701 80 173 2.0 7.0 0.00 0.00 0.00 43 1018.2
20260903102202 80 155 2.0 6.0 0.00 0.00 0.00 43 1018.1
20260903101701 81 75 3.0 8.0 0.00 0.00 0.00 43 1018.2
20260903101201 81 130 4.0 10.0 0.00 0.00 0.00 43 1018.2
20260903100701 81 107 5.0 10.0 0.00 0.00 0.00 42 1018.2
20260903100642 81 88 4.0 8.0 0.00 0.00 0.00 42 1018.1
20260903095658 81 72 4.0 10.0 0.00 0.00 0.00 42 1018.2
20260903095158 81 125 5.0 10.0 0.00 0.00 0.00 42 1018.1
20260903094659 81 139 4.0 10.0 0.00 0.00 0.00 42 1018.1
20260903094158 81 67 2.0 8.0 0.00 0.00 0.00 42 1018.1
20260903093658 81 46 2.0 5.0 0.00 0.00 0.00 42 1018.1
20260903093640 81 103 2.0 5.0 0.00 0.00 0.00 42 1018.0
20260903092658 81 139 2.0 5.0 0.00 0.00 0.00 42 1018.1
20260903092157 81 55 2.0 7.0 0.00 0.00 0.00 41 1018.2
20260903091658 82 155 2.0 7.0 0.00 0.00 0.00 40 1018.2
20260903091157 82 117 1.0 6.0 0.00 0.00 0.00 40 1018.1
20260903090659 82 150 1.0 3.0 0.00 0.00 0.00 40 1018.0
20260903090416 82 173 2.0 8.0 0.00 0.00 0.00 39 1018.1
20260903085655 82 229 3.0 11.0 0.00 0.00 0.00 39 1018.1
20260903085156 81 96 3.0 11.0 0.00 0.00 0.00 39 1018.0
20260903084656 81 155 4.0 8.0 0.00 0.00 0.00 42 1018.1
20260903084156 81 133 4.0 7.0 0.00 0.00 0.00 42 1017.9
20260903083656 81 119 2.0 7.0 0.00 0.00 0.00 42 1017.9
20260903083156 81 33 1.0 4.0 0.00 0.00 0.00 43 1018.0
20260903082656 81 101 3.0 9.0 0.00 0.00 0.00 43 1017.8
20260903082419 81 132 4.0 9.0 0.00 0.00 0.00 43 1018.0
20260903081656 81 187 5.0 10.0 0.00 0.00 0.00 43 1018.0
20260903081156 81 207 6.0 16.0 0.00 0.00 0.00 43 1018.1
20260903080656 81 202 7.0 16.0 0.00 0.00 0.00 43 1018.1
20260903080156 81 201 8.0 16.0 0.00 0.00 0.00 42 1018.2
20260903075921 82 188 6.0 16.0 0.00 0.00 0.00 40 1018.1
20260903075156 82 252 5.0 12.0 0.00 0.00 0.00 40 1018.0
20260903074918 82 61 7.0 17.0 0.00 0.00 0.00 39 1018.0
20260903074153 82 237 10.0 17.0 0.00 0.00 0.00 39 1018.0
20260903073654 83 238 6.0 17.0 0.00 0.00 0.00 38 1018.2
20260903073152 83 211 2.0 10.0 0.00 0.00 0.00 34 1018.2
20260903072652 83 162 3.0 5.0 0.00 0.00 0.00 34 1018.1
20260903072153 83 205 2.0 5.0 0.00 0.00 0.00 34 1018.2
20260903071913 83 212 3.0 8.0 0.00 0.00 0.00 34 1018.1
20260903071150 83 45 4.0 8.0 0.00 0.00 0.00 34 1018.2
20260903070649 83 130 3.0 8.0 0.00 0.00 0.00 34 1018.1
20260903070147 83 55 3.0 7.0 0.00 0.00 0.00 34 1018.0
20260903065648 84 93 4.0 7.0 0.00 0.00 0.00 32 1018.0
20260903065148 86 88 4.0 9.0 0.00 0.00 0.00 31 1018.1
20260903064646 87 57 4.0 9.0 0.00 0.00 0.00 30 1018.0
20260903064146 86 5 4.0 9.0 0.00 0.00 0.00 30 1017.7
20260903063645 86 78 5.0 13.0 0.00 0.00 0.00 31 1017.8
20260903063145 85 71 5.0 13.0 0.00 0.00 0.00 31 1017.7
20260903062647 85 76 3.0 8.0 0.00 0.00 0.00 31 1017.7
20260903062144 85 74 2.0 5.0 0.00 0.00 0.00 31 1017.8
20260903061637 86 61 2.0 5.0 0.00 0.00 0.00 30 1017.8
20260903061137 87 47 4.0 12.0 0.00 0.00 0.00 30 1017.7
20260903060638 87 9 5.0 12.0 0.00 0.00 0.00 29 1017.9
20260903060622 87 317 6.0 11.0 0.00 0.00 0.00 29 1017.9
20260903055636 88 319 6.0 11.0 0.00 0.00 0.00 29 1017.9
20260903055135 88 246 7.0 12.0 0.00 0.00 0.00 30 1017.9
20260903054635 88 271 6.0 12.0 0.00 0.00 0.00 30 1017.9
20260903054135 88 273 4.0 11.0 0.00 0.00 0.00 30 1017.9
20260903053636 88 272 3.0 8.0 0.00 0.00 0.00 30 1017.8
20260903053135 88 319 4.0 10.0 0.00 0.00 0.00 29 1017.9
20260903052632 88 296 3.0 10.0 0.00 0.00 0.00 29 1017.9
20260903052352 87 302 1.0 6.0 0.00 0.00 0.00 30 1018.0
20260903051631 87 320 0.0 4.0 0.00 0.00 0.00 30 1018.0
20260903051132 87 168 0.0 2.0 0.00 0.00 0.00 30 1018.0
20260903050632 87 168 1.0 4.0 0.00 0.00 0.00 29 1017.9
20260903050132 87 176 1.0 4.0 0.00 0.00 0.00 29 1018.1
20260903045630 87 75 0.0 0.0 0.00 0.00 0.00 29 1018.1
20260903045129 88 166 0.0 0.0 0.00 0.00 0.00 29 1018.1
20260903044629 88 124 0.0 2.0 0.00 0.00 0.00 28 1018.0
20260903044353 88 124 0.0 2.0 0.00 0.00 0.00 28 1018.0
20260903043629 88 27 0.0 1.0 0.00 0.00 0.00 28 1018.0
20260903043129 88 29 1.0 4.0 0.00 0.00 0.00 28 1018.1
20260903042629 89 29 1.0 4.0 0.00 0.00 0.00 28 1018.0
20260903042129 89 15 1.0 4.0 0.00 0.00 0.00 28 1017.9
20260903041859 89 55 2.0 4.0 0.00 0.00 0.00 28 1018.0
20260903041130 89 53 2.0 4.0 0.00 0.00 0.00 28 1018.0
20260903040630 89 15 1.0 4.0 0.00 0.00 0.00 27 1018.0
20260903040129 89 19 1.0 3.0 0.00 0.00 0.00 27 1018.0
20260903035630 89 319 1.0 6.0 0.00 0.00 0.00 27 1017.9
20260903035129 89 328 2.0 6.0 0.00 0.00 0.00 27 1017.8
20260903034632 89 323 2.0 4.0 0.00 0.00 0.00 27 1017.9
20260903034129 89 300 2.0 4.0 0.00 0.00 0.00 27 1017.8
20260903033629 90 322 2.0 4.0 0.00 0.00 0.00 27 1017.7
20260903033130 90 294 2.0 4.0 0.00 0.00 0.00 27 1017.7
20260903032629 90 318 2.0 6.0 0.00 0.00 0.00 27 1017.8
20260903032357 90 294 1.0 6.0 0.00 0.00 0.00 27 1017.8
20260903031629 89 311 0.0 3.0 0.00 0.00 0.00 27 1017.7
20260903031349 90 255 0.0 3.0 0.00 0.00 0.00 27 1017.6
20260903030846 90 240 0.0 3.0 0.00 0.00 0.00 27 1017.6
20260903030350 90 296 0.0 3.0 0.00 0.00 0.00 27 1017.3
20260903030118 90 286 0.0 3.0 0.00 0.00 0.00 27 1017.3
20260903025351 90 270 1.0 3.0 0.00 0.00 0.00 27 1017.2
20260903024629 90 246 1.0 3.0 0.00 0.00 0.00 26 1017.2
20260903024130 90 294 1.0 3.0 0.00 0.00 0.00 26 1017.0
20260903024120 91 279 1.0 4.0 0.00 0.00 0.00 26 1017.0
20260903023353 91 276 2.0 4.0 0.00 0.00 0.00 26 1016.9
20260903022629 91 271 1.0 4.0 0.00 0.00 0.00 26 1016.9
20260903022132 91 286 1.0 4.0 0.00 0.00 0.00 26 1016.8
20260903021629 91 294 2.0 4.0 0.00 0.00 0.00 26 1016.9
20260903021129 91 285 1.0 4.0 0.00 0.00 0.00 26 1016.8
20260903020629 91 272 2.0 6.0 0.00 0.00 0.00 26 1016.8
20260903020127 92 263 3.0 7.0 0.00 0.00 0.00 26 1016.8
20260903015621 92 284 3.0 7.0 0.00 0.00 0.00 26 1016.8
20260903015115 92 304 3.0 8.0 0.00 0.00 0.00 25 1016.7
20260903014611 92 296 4.0 10.0 0.00 0.00 0.00 25 1016.7
20260903014111 92 291 3.0 10.0 0.00 0.00 0.00 25 1016.7
20260903013612 92 281 2.0 7.0 0.00 0.00 0.00 25 1016.5
20260903013333 92 314 3.0 8.0 0.00 0.00 0.00 25 1016.4
20260903012610 92 301 4.0 9.0 0.00 0.00 0.00 25 1016.4
20260903012112 93 282 4.0 9.0 0.00 0.00 0.00 24 1016.4
20260903011610 93 304 3.0 9.0 0.00 0.00 0.00 24 1016.3
20260903011111 94 261 3.0 8.0 0.00 0.00 0.00 23 1016.4
20260903010611 94 250 3.0 8.0 0.00 0.00 0.00 23 1016.3
20260903010111 94 281 2.0 8.0 0.00 0.00 0.00 22 1016.2
20260903005610 94 312 2.0 8.0 0.00 0.00 0.00 22 1016.2
20260903005112 94 340 3.0 9.0 0.00 0.00 0.00 22 1016.4
20260903004839 95 288 4.0 9.0 0.00 0.00 0.00 22 1016.4
20260903004111 95 355 4.0 8.0 0.00 0.00 0.00 21 1016.3
20260903003611 95 355 4.0 10.0 0.00 0.00 0.00 21 1016.3
20260903003108 96 325 5.0 12.0 0.00 0.00 0.00 21 1016.4
20260903002607 96 309 6.0 12.0 0.00 0.00 0.00 21 1016.3
20260903002106 96 319 6.0 12.0 0.00 0.00 0.00 21 1016.3
20260903001607 96 328 4.0 12.0 0.00 0.00 0.00 20 1016.3
20260903001107 96 300 4.0 10.0 0.00 0.00 0.00 20 1016.4
20260903000609 96 282 4.0 10.0 0.00 0.00 0.00 20 1016.2
20260903000527 97 271 4.0 11.0 0.00 0.00 0.00 20 1016.3
20260903000522 96 299 5.0 11.0 0.00 0.00 0.00 20 1016.4
20260902235106 96 231 5.0 11.0 0.00 0.00 0.00 20 1016.2
20260902234607 96 285 5.0 9.0 0.00 0.00 0.00 20 1016.3
20260902234107 97 338 4.0 9.0 0.00 0.00 0.00 20 1016.4
20260902233607 97 312 5.0 13.0 0.00 0.00 0.00 20 1016.5
20260902233107 97 251 5.0 13.0 0.00 0.00 0.00 20 1016.4
20260902232606 97 218 5.0 12.0 0.00 0.00 0.00 20 1016.4
20260902232330 97 280 6.0 12.0 0.00 0.00 0.00 20 1016.7
20260902231826 97 271 5.0 12.0 0.00 0.00 0.00 20 1016.7
20260902231107 97 285 4.0 10.0 0.00 0.00 0.00 20 1016.5
20260902230607 97 195 4.0 10.0 0.00 0.00 0.00 21 1016.7
20260902230326 96 244 6.0 12.0 0.00 0.00 0.00 21 1016.8
20260902225606 96 310 6.0 12.0 0.00 0.00 0.00 21 1016.9
20260902225106 96 46 4.0 9.0 0.00 0.00 0.00 21 1016.9
20260902224605 97 333 3.0 8.0 0.00 0.00 0.00 21 1016.9
20260902224105 97 36 4.0 10.0 0.00 0.00 0.00 21 1017.0
20260902223604 96 311 5.0 10.0 0.00 0.00 0.00 22 1017.1
20260902223101 96 316 5.0 10.0 0.00 0.00 0.00 21 1017.1
20260902222603 96 338 6.0 10.0 0.00 0.00 0.00 22 1017.1
20260902222103 96 217 6.0 12.0 0.00 0.00 0.00 22 1017.2
20260902221603 96 242 6.0 13.0 0.00 0.00 0.00 22 1017.2
20260902221103 97 263 5.0 13.0 0.00 0.00 0.00 22 1017.3
20260902220827 98 242 4.0 13.0 0.00 0.00 0.00 22 1017.3
20260902215602 96 229 5.0 12.0 0.00 0.00 0.00 22 1017.6
20260902215101 96 288 5.0 12.0 0.00 0.00 0.00 22 1017.4
20260902214602 96 225 5.0 11.0 0.00 0.00 0.00 23 1017.4
20260902214101 96 121 5.0 10.0 0.00 0.00 0.00 22 1017.6
20260902213602 96 112 6.0 10.0 0.00 0.00 0.00 22 1017.7
20260902213101 96 242 6.0 12.0 0.00 0.00 0.00 23 1017.7
20260902212601 96 250 6.0 16.0 0.00 0.00 0.00 23 1017.8
20260902212100 96 198 7.0 16.0 0.00 0.00 0.00 23 1017.9
20260902212048 96 236 5.0 13.0 0.00 0.00 0.00 23 1017.9
20260902211101 96 180 2.0 9.0 0.00 0.00 0.00 24 1018.0
20260902210600 95 280 2.0 7.0 0.00 0.00 0.00 24 1018.1
20260902210100 95 345 4.0 11.0 0.00 0.00 0.00 24 1018.1
20260902205600 95 239 6.0 15.0 0.00 0.00 0.00 24 1018.2
20260902205101 96 255 7.0 15.0 0.00 0.00 0.00 24 1018.3
20260902204600 96 254 7.0 14.0 0.00 0.00 0.00 24 1018.4
20260902204053 96 246 6.0 14.0 0.00 0.00 0.00 24 1018.4
20260902203546 96 271 5.0 10.0 0.00 0.00 0.00 24 1018.6
20260902203040 95 147 5.0 13.0 0.00 0.00 0.00 25 1018.7
20260902202535 95 223 7.0 13.0 0.00 0.00 0.00 25 1018.7
20260902202030 95 166 6.0 13.0 0.00 0.00 0.00 25 1018.7
20260902201531 94 236 3.0 9.0 0.00 0.00 0.00 26 1018.9
20260902201031 94 74 2.0 7.0 0.00 0.00 0.00 26 1019.0
20260902200531 94 312 4.0 12.0 0.00 0.00 0.00 26 1019.1
20260902200030 94 213 6.0 12.0 0.00 0.00 0.00 26 1019.2
20260902195530 94 254 6.0 16.0 0.00 0.00 0.00 25 1019.3
20260902195253 94 289 7.0 16.0 0.00 0.00 0.00 25 1019.3
20260902194529 93 215 7.0 13.0 0.00 0.00 0.00 26 1019.5
20260902194030 94 251 6.0 12.0 0.00 0.00 0.00 26 1019.6
20260902193530 93 225 5.0 12.0 0.00 0.00 0.00 26 1019.6
20260902193030 93 134 6.0 14.0 0.00 0.00 0.00 26 1019.7
20260902192530 93 265 6.0 14.0 0.00 0.00 0.00 26 1019.8
20260902192030 93 245 5.0 11.0 0.00 0.00 0.00 26 1019.8
20260902191530 94 284 7.0 13.0 0.00 0.00 0.00 25 1019.9
20260902191031 93 283 7.0 13.0 0.00 0.00 0.00 26 1019.9
20260902190530 93 234 6.0 13.0 0.00 0.00 0.00 27 1019.9
20260902190030 93 244 7.0 12.0 0.00 0.00 0.00 27 1020.0
20260902185530 92 242 8.0 15.0 0.00 0.00 0.00 27 1020.2
20260902185030 92 241 9.0 15.0 0.00 0.00 0.00 27 1020.2
20260902184530 93 253 7.0 14.0 0.00 0.00 0.00 27 1020.2
20260902184029 93 246 5.0 12.0 0.00 0.00 0.00 27 1020.4
20260902183530 92 260 5.0 12.0 0.00 0.00 0.00 28 1020.5
20260902183029 92 239 6.0 13.0 0.00 0.00 0.00 27 1020.6
20260902182530 92 256 6.0 13.0 0.00 0.00 0.00 27 1020.7
20260902182521 92 296 5.0 11.0 0.00 0.00 0.00 27 1020.7
20260902181529 92 221 5.0 11.0 0.00 0.00 0.00 28 1020.7
20260902181030 92 268 4.0 11.0 0.00 0.00 0.00 28 1020.8
20260902180530 92 149 2.0 8.0 0.00 0.00 0.00 27 1020.8
20260902180030 91 321 2.0 5.0 0.00 0.00 0.00 27 1020.8
20260902175529 91 324 2.0 5.0 0.00 0.00 0.00 28 1020.9
20260902175029 90 307 2.0 5.0 0.00 0.00 0.00 28 1021.0
20260902174743 90 213 5.0 10.0 0.00 0.00 0.00 28 1021.0
20260902174734 90 12 4.0 10.0 0.00 0.00 0.00 28 1021.0
20260902173530 91 200 4.0 10.0 0.00 0.00 0.00 28 1021.0
20260902173028 90 144 5.0 11.0 0.00 0.00 0.00 28 1021.0
20260902172740 90 185 5.0 11.0 0.00 0.00 0.00 28 1021.0
20260902172016 91 182 4.0 10.0 0.00 0.00 0.00 28 1021.0
20260902171515 91 211 3.0 10.0 0.00 0.00 0.00 28 1021.3
20260902171222 90 273 1.0 4.0 0.00 0.00 0.00 29 1021.4
20260902171215 91 236 2.0 6.0 0.00 0.00 0.00 28 1021.4
20260902170017 90 162 1.0 4.0 0.00 0.00 0.00 30 1021.4
20260902165516 89 76 1.0 4.0 0.00 0.00 0.00 30 1021.4
20260902165016 89 81 2.0 6.0 0.00 0.00 0.00 31 1021.4
20260902164516 88 28 2.0 6.0 0.00 0.00 0.00 31 1021.3
20260902164014 88 61 1.0 4.0 0.00 0.00 0.00 32 1021.5
20260902163514 88 236 2.0 6.0 0.00 0.00 0.00 32 1021.6
20260902163241 88 65 1.0 6.0 0.00 0.00 0.00 33 1021.6
20260902162514 87 343 1.0 4.0 0.00 0.00 0.00 32 1021.5
20260902162012 87 277 2.0 5.0 0.00 0.00 0.00 32 1021.6
20260902161510 87 224 2.0 5.0 0.00 0.00 0.00 32 1021.6
20260902161010 87 273 2.0 5.0 0.00 0.00 0.00 34 1021.6
20260902160736 87 270 1.0 4.0 0.00 0.00 0.00 35 1021.6
20260902160232 86 275 1.0 4.0 0.00 0.00 0.00 36 1021.6
20260902155506 86 230 1.0 4.0 0.00 0.00 0.00 36 1021.5
20260902155005 86 126 2.0 5.0 0.00 0.00 0.00 36 1021.4
20260902154734 85 127 1.0 5.0 0.00 0.00 0.00 36 1021.5
20260902154004 85 213 1.0 4.0 0.00 0.00 0.00 37 1021.4
20260902153504 85 254 1.0 4.0 0.00 0.00 0.00 39 1021.4
20260902153001 85 284 1.0 3.0 0.00 0.00 0.00 39 1021.4
20260902152502 85 185 0.0 2.0 0.00 0.00 0.00 39 1021.4
20260902152002 84 186 1.0 4.0 0.00 0.00 0.00 39 1021.4
20260902151502 84 132 1.0 4.0 0.00 0.00 0.00 39 1021.4
20260902151002 83 169 1.0 5.0 0.00 0.00 0.00 41 1021.4
20260902150723 83 170 1.0 5.0 0.00 0.00 0.00 41 1021.4
20260902150002 82 123 0.0 3.0 0.00 0.00 0.00 42 1021.4
20260902145502 81 149 1.0 2.0 0.00 0.00 0.00 43 1021.4
20260902145002 80 144 1.0 3.0 0.00 0.00 0.00 43 1021.4
20260902144729 80 203 1.0 4.0 0.00 0.00 0.00 44 1021.4
20260902144002 80 153 1.0 4.0 0.00 0.00 0.00 45 1021.3
20260902143502 79 150 2.0 6.0 0.00 0.00 0.00 45 1021.3
20260902143001 79 113 3.0 6.0 0.00 0.00 0.00 46 1021.3
20260902142502 79 105 3.0 7.0 0.00 0.00 0.00 46 1021.3
20260902142002 78 122 3.0 7.0 0.00 0.00 0.00 46 1021.3
20260902141502 78 144 2.0 4.0 0.00 0.00 0.00 47 1021.1
20260902141000 77 134 1.0 4.0 0.00 0.00 0.00 46 1021.1
20260902140501 77 123 1.0 4.0 0.00 0.00 0.00 46 1021.1
20260902140004 76 112 1.0 4.0 0.00 0.00 0.00 46 1021.1
20260902135501 76 121 1.0 3.0 0.00 0.00 0.00 45 1021.1
20260902135001 75 122 1.0 4.0 0.00 0.00 0.00 46 1021.0
20260902134502 75 134 2.0 4.0 0.00 0.00 0.00 45 1020.9
20260902134002 75 80 1.0 4.0 0.00 0.00 0.00 45 1021.0
20260902133501 75 104 1.0 3.0 0.00 0.00 0.00 46 1020.8
20260902133002 74 105 1.0 3.0 0.00 0.00 0.00 46 1020.7
20260902132723 74 52 1.0 3.0 0.00 0.00 0.00 47 1020.7
20260902132223 73 16 0.0 2.0 0.00 0.00 0.00 47 1020.6
20260902131501 73 28 0.0 1.0 0.00 0.00 0.00 48 1020.5
20260902131001 73 54 0.0 1.0 0.00 0.00 0.00 48 1020.5
20260902130502 72 54 0.0 2.0 0.00 0.00 0.00 49 1020.5
20260902130216 72 54 1.0 3.0 0.00 0.00 0.00 48 1020.5
20260902130204 72 54 1.0 3.0 0.00 0.00 0.00 48 1020.5
20260902125001 72 54 1.0 3.0 0.00 0.00 0.00 48 1020.2
20260902124724 72 53 0.0 3.0 0.00 0.00 0.00 49 1020.2
20260902124001 72 44 0.0 1.0 0.00 0.00 0.00 48 1020.1
20260902123724 73 42 0.0 2.0 0.00 0.00 0.00 48 1020.1
20260902123001 73 65 1.0 4.0 0.00 0.00 0.00 48 1020.0
20260902122501 73 65 1.0 4.0 0.00 0.00 0.00 49 1020.0
20260902122223 73 253 0.0 0.0 0.00 0.00 0.00 49 1019.9